Printer-friendly version

IAU Minor Planet Center

Minor Planet Center

MPEC 2006-R51 : 2006 RJ2

The following Minor Planet Electronic Circular may be linked-to from your own Web pages, but must not otherwise be redistributed electronically.


Read MPEC 2006-R50 Read MPEC 2006-R52


M.P.E.C. 2006-R51                                Issued 2006 Sept. 15, 13:35 UT

     The Minor Planet Electronic Circulars contain information on unusual
         minor planets and routine data on comets.  They are published
   on behalf of Commission 20 of the International Astronomical Union by the
          Minor Planet Center, Smithsonian Astrophysical Observatory,
                          Cambridge, MA 02138, U.S.A.

                  Supported in part by the Brinson Foundation
                  Supported in part by the TABASGO Foundation
             Prepared using the Tamkin Foundation Computer Network

                              MPC@CFA.HARVARD.EDU
          URL http://cfa-www.harvard.edu/iau/mpc.html  ISSN 1523-6714

                                   2006 RJ2

Observations:
     K06R02J* C2006 09 14.40225 01 15 25.02 +06 46 13.4          19.7 V ER051703
     K06R02J  C2006 09 14.40873 01 15 23.40 +06 45 59.9          19.7 V ER051703
     K06R02J  C2006 09 14.41691 01 15 21.45 +06 45 41.5          19.2 V ER051703
     K06R02J  C2006 09 14.42338 01 15 19.83 +06 45 28.6          19.1 V ER051703
     K06R02J  C2006 09 14.45668 01 15 11.59 +06 44 18.1          19.4 V ER051703
     K06R02J  C2006 09 14.46424 01 15 09.72 +06 44 02.4          19.4 V ER051703
     K06R02J  C2006 09 14.47174 01 15 07.88 +06 43 46.2          19.9 V ER051703
     K06R02J  C2006 09 14.47930 01 15 06.01 +06 43 30.3          19.4 V ER051703
     K06R02J  C2006 09 14.49462 01 15 02.23 +06 42 58.8          19.4 V ER051703
     K06R02J  C2006 09 14.49549 01 15 02.05 +06 42 55.7          19.5 V ER051703
     K06R02J  C2006 09 14.49635 01 15 01.80 +06 42 55.1          19.4 V ER051703
     K06R02J  C2006 09 14.49723 01 15 01.58 +06 42 53.2          19.8 V ER051703
     K06R02J  C2006 09 14.59473 01 14 38.00 +06 39 34.2          19.0 V ER051E12
     K06R02J  C2006 09 14.59537 01 14 37.89 +06 39 32.4          19.0 V ER051E12
     K06R02J  C2006 09 14.59603 01 14 37.71 +06 39 31.0          19.2 V ER051E12
     K06R02J  C2006 09 14.59731 01 14 37.46 +06 39 28.6          19.4 V ER051E12
     K06R02J  C2006 09 14.59837 01 14 37.06 +06 39 26.9          18.8 V ER051E12
     K06R02J  C2006 09 14.59903 01 14 36.92 +06 39 25.4          19.1 V ER051E12
     K06R02J  C2006 09 14.59966 01 14 36.81 +06 39 23.2          19.1 V ER051E12
     K06R02J  C2006 09 14.60032 01 14 36.60 +06 39 22.2          19.4 V ER051E12
     K06R02J  C2006 09 15.25503 01 11 54.91 +06 16 10.6          19.4 R ER051I77
     K06R02J  C2006 09 15.26531 01 11 52.35 +06 15 49.1          19.5 R ER051I77
     K06R02J  C2006 09 15.27558 01 11 49.75 +06 15 27.9          19.1 R ER051I77
     K06R02J  C2006 09 15.40712 01 11 17.11 +06 10 39.7          19.9 R ER051734
     K06R02J  C2006 09 15.40936 01 11 16.59 +06 10 34.9          19.6 R ER051734
     K06R02J  C2006 09 15.41159 01 11 15.97 +06 10 29.7          20.2 R ER051734
     K06R02J  C2006 09 15.41828 01 11 14.31 +06 10 16.0          18.8 R ER051H36
     K06R02J  C2006 09 15.42343 01 11 13.13 +06 10 04.6          18.7 R ER051H36
     K06R02J  C2006 09 15.48207 01 10 58.40 +06 08 00.1          19.0 R ER051854
     K06R02J  C2006 09 15.48591 01 10 57.42 +06 07 53.2          19.1 R ER051854
     K06R02J  C2006 09 15.48974 01 10 56.55 +06 07 44.3          19.1 R ER051854

Observer details:
703 Catalina Sky Survey.  Observer E. J. Christensen.  Measurers E. C. Beshore,
    E. J. Christensen, G. J. Garradd, A. R. Gibbs, A. D. Grauer, R. E. Hill,
    R. A. Kowalski, S. M. Larson, R. H. McNaught.  0.68-m Schmidt + CCD.
734 Farpoint Observatory.  Observer D. Tibbets.  0.7-m reflector + CCD.
854 Sabino Canyon Observatory, Tucson.  Observer J. E. McGaha.  0.36-m f/10.0
    Schmidt-Cassegrain + CCD.
E12 Siding Spring Survey.  Observer R. H. McNaught.  Measurers E. C. Beshore,
    E. J. Christensen, G. J. Garradd, A. R. Gibbs, A. D. Grauer, R. E. Hill,
    R. A. Kowalski, S. M. Larson, R. H. McNaught.  0.5-m Uppsala Schmidt + CCD.
H36 Sandlot Observatory, Scranton.  Observer G. Hug.  0.30-m
    Schmidt-Cassegrain + CCD.
I77 CEAMIG-REA Observatory, Belo Horizonte.  Observers C. Jacques, E. Pimentel.
    Measurer C. Jacques.  0.30-m f/3.0 Schmidt-Cassegrain + CCD.

Orbital elements:
2006 RJ2
Epoch 2006 Sept. 22.0 TT = JDT 2454000.5                MPC
M   0.61550              (2000.0)            P               Q
n   0.01687244     Peri.  172.16618     +0.94778436     +0.31514034
a  15.0551164      Node   190.91991     +0.27681396     -0.73679871
e   0.8420283      Incl.  165.04010     +0.15836302     -0.59817575
P  58.42           H   16.0           G   0.15           U   8
Residuals in seconds of arc
060914 703  0.1-  0.5+    060914 703  0.1-  0.2+    060915 I77  0.3+  0.6+
060914 703  0.4-  0.6+    060914 E12  0.5-  0.3+    060915 734  0.4-  0.4-
060914 703  0.6+  0.6-    060914 E12  0.3+  0.2-    060915 734  0.2+  0.4-
060914 703  0.3+  0.1+    060914 E12  0.0   0.2-    060915 734  0.7-  0.8-
060914 703  0.0   0.3-    060914 E12  1.0+  0.1+    060915 H36  0.5-  0.2-
060914 703  0.1-  0.1-    060914 E12  1.0-  0.7+    060915 H36  1.1+  0.5-
060914 703  0.1+  0.5-    060914 E12  0.7-  0.6+    060915 854  0.5-  0.1+
060914 703  0.0   0.5-    060914 E12  0.0   0.3-    060915 854  0.8-  1.4+
060914 703  0.0   0.3+    060914 E12  0.7-  0.1+    060915 854  0.5+  0.8+
060914 703  0.6+  0.9-    060915 I77  0.6+  0.7-
060914 703  0.0   0.3+    060915 I77  0.8+  0.2-

Ephemeris:
2006 RJ2                 a,e,i = 15.06, 0.84, 165                q = 2.3783
Date    TT    R. A. (2000) Decl.     Delta      r     Elong.  Phase     V
2006 09 12    01 25.03   +08 08.3    1.490    2.394   146.3    13.5    19.5
2006 09 22    00 42.95   +02 04.0    1.417    2.407   167.9     5.0    19.1
2006 10 02    23 58.66   -04 21.6    1.436    2.425   168.7     4.6    19.1
2006 10 12    23 18.10   -09 58.2    1.545    2.447   147.7    12.6    19.6
2006 10 22    22 45.16   -14 09.4    1.725    2.473   128.8    18.3    20.1
2006 11 01    22 20.73   -16 59.5    1.950    2.503   112.4    21.5    20.5
2006 11 11    22 03.75   -18 49.5    2.201    2.536    98.0    22.8    20.8
2006 11 21    21 52.65   -19 58.8    2.461    2.572    85.1    22.5    21.1
2006 12 01    21 45.98   -20 41.5    2.717    2.612    73.3    21.2    21.3
2006 12 11    21 42.56   -21 06.9    2.963    2.654    62.4    19.2    21.5

Timothy B. Spahr             (C) Copyright 2006 MPC           M.P.E.C. 2006-R51

Read MPEC 2006-R50 Read MPEC 2006-R52


Our Web policy. Index to the CBAT/MPC/ICQ pages.


Valid HTML 4.01!